User: anonymous   Login
Location: Unspecified
(0.0000°N, 0.0000°E)
Time: 07:06:59
(UTC+00:00)
Language:

COSMOS 2488 - Orbit

View from above orbital plane
View from above orbital plane
View from above satellite
View from above satellite

Ground track
Ground track

The orbit data is extracted from the following two-line orbital elements,

1 39483U 13076A   24104.85060287  .00000012  00000-0  16606-4 0  9997
2 39483  82.4806 303.7156 0019656  27.8320 332.3807 12.42882791467211
Epoch (UTC): 13 April 2024 20:24:52
Eccentricity: 0.0019656
inclination: 82.4806°
perigee height: 1479 km
apogee height: 1510 km
right ascension of ascending node: 303.7156°
argument of perigee: 27.8320°
revolutions per day: 12.42882791
mean anomaly at epoch: 332.3807°
orbit number at epoch: 46721

The dashed part of the orbit path shows where the satellite is in the earth's shadow,  

DLR